Regional Weather Roundup
Issued by NWS Little Rock, AR

Home | Current Version | Previous Version | Graphics & Text | Print | Product List | Glossary On
Versions: 1 2 3 4 5 6 7 8 9 10 11 12 13 14 15 16 17 18 19 20 21 22 23 24 25 26 27 28 29 30 31 32
000
ASUS44 KLZK 191605
RWRLZK

WEATHER ROUNDUP FOR ARKANSAS
NATIONAL WEATHER SERVICE LITTLE ROCK AR
1000 AM CST SUN NOV 19 2017

NOTE: "FAIR" INDICATES FEW OR NO CLOUDS BELOW 12,000 FEET WITH NO
SIGNIFICANT WEATHER AND/OR OBSTRUCTIONS TO VISIBILITY.

ARZ001-003-010-029-191700-
NORTHWEST ARKANSAS

CITY           SKY/WX    TMP DP  RH WIND       PRES   REMARKS
FAYETTEVILLE   SUNNY     43  29  57 N7        30.33R
FORT SMITH     SUNNY     50  29  44 N5        30.35R
HARRISON       SUNNY     43  26  51 NW8       30.30R
BENTONVILLE    SUNNY     41  26  55 CALM      30.34S
ROGERS         SUNNY     41  25  53 NW8       30.33R
SILOAM SPGS    SUNNY     43  29  57 N7        30.34S
HIGHFILL       SUNNY     42  29  59 VRB3      30.33R
SPRINGDALE     SUNNY     43  27  52 N8        30.34R
$$

ARZ004-005-016-191700-
NORTH CENTRAL ARKANSAS

CITY           SKY/WX    TMP DP  RH WIND       PRES   REMARKS
BATESVILLE     SUNNY     46  21  37 NW12G18   30.30R
FLIPPIN        SUNNY     45  25  45 NW10      30.31S
MTN HOME       SUNNY     43  23  45 N10G16    30.29R
$$

ARZ040-041-191700-
WEST CENTRAL ARKANSAS

CITY           SKY/WX    TMP DP  RH WIND       PRES   REMARKS
MENA           SUNNY     52  28  40 N8        30.34R
MOUNT IDA      SUNNY     50  31  48 VRB5      30.30R
$$

ARZ009-017-025-026-028-191700-
NORTHEAST ARKANSAS

CITY           SKY/WX    TMP DP  RH WIND       PRES   REMARKS
CORNING        FAIR      43  23  45 NW16      30.27R
JONESBORO      SUNNY     44  25  47 NW16      30.27R
NEWPORT        SUNNY     46  22  38 N18       30.29R
WALNUT RIDGE     N/A     44  22  41 NW17      30.28R
BLYTHEVILLE    SUNNY     47  32  56 N15G22    30.27R
$$

ARZ022-023-033-042-044-191700-
CENTRAL ARKANSAS

CITY           SKY/WX    TMP DP  RH WIND       PRES   REMARKS
LITTLE ROCK    SUNNY     50  26  39 NW12      30.32R
N LITTLE ROCK    N/A     48  27  44 N9        30.34R
JACKSONVILLE   SUNNY     49  25  39 N10G17    30.31R
SEARCY         SUNNY     49  24  37 N13       30.31R
HOT SPRINGS    SUNNY     53  26  35 NW8       30.33R
RUSSELLVILLE   SUNNY     49  26  41 NW5       30.33R
CLINTON        FAIR      48  21  34 NW9G16    30.32S
$$

ARZ036-191700-
EAST ARKANSAS

CITY           SKY/WX    TMP DP  RH WIND       PRES   REMARKS
WEST MEMPHIS   SUNNY     46  26  45 N9G20     30.26R
$$

ARZ050-053-066-070-073-191700-
SOUTHWEST ARKANSAS

CITY           SKY/WX    TMP DP  RH WIND       PRES   REMARKS
ARKADELPHIA    FAIR      53  31  42 N8        30.34
CAMDEN         SUNNY     54  30  40 VRB6      30.34R
TEXARKANA      SUNNY     53  32  44 NW8       30.35R
EL DORADO      SUNNY     53  34  48 NW13      30.33S
DE QUEEN       SUNNY     51  36  56 SW5       30.34R
$$

ARZ056-057-069-191700-
SOUTHEAST ARKANSAS

CITY           SKY/WX    TMP DP  RH WIND       PRES   REMARKS
PINE BLUFF     SUNNY     50  25  37 N15       30.32R
STUTTGART      SUNNY     50  26  39 N17       30.30S
MONTICELLO     SUNNY     53  26  35 VRB7      30.30R

$$






USA.gov is the U.S. government's official web portal to all federal, state and local government web resources and services.